x

Buoy I01 - Eastern Maine Shelf (44034) Wave Buoy

9:04 - Thu 27th Apr 2017 All times are EDT. -4 hours from GMT.

  • Sig Wave height 7.9ft
  • Peak Period 11s
  • Wind
    11mph
  • Sea Temp 40°f
  • Luft Temp 43°f
  • Sea Pressure 1014mb
  • Buoy I01 - Eastern Maine Shelf
  • Buoy I01 - Eastern Maine Shelf

More Historic Weather Station data

Upgrade to MSW Pro to gain access to the past 30 days of data for over 8000 Wavebouys and Weather Stations around the globe.

Join Pro

Comparision Forecast

View Surf forecast
   
Do 04/27 9:04 8ft 11s 11
mph
1014mb 40f 43f
8:04 7.5ft 11s 7 9 mph 1014.3mb 40f 43f
7:04 8.5ft 11s 7 9 mph 1014.7mb 40f 43f
6:04 10ft 11s 7 9 mph 1014mb 40f 43f
5:04 9ft 11s 2 4 mph 1013.3mb 40f 44f
4:04 9ft 11s 4 7 mph 1013.4mb 40f 44f
3:04 9ft 11s 16 18 mph 1012.4mb 40f 45f
2:04 8ft 11s 16 18 mph 1012.5mb 40f 45f
1:04 8ft 11s 18 20 mph 1012.8mb 40f 46f
12:04 8ft 11s 20 22 mph 1013mb 40f 46f
Mi 04/26 11:04 7.5ft 8s 18 20 mph 1013.5mb 40f 46f
10:04 8.5ft 8s 13 16 mph 1014.3mb 40f 45f
9:04 9ft 11s 16 20 mph 1014.6mb 40f 45f
8:04 9ft 11s 18 20 mph 1014.3mb 40f 46f
7:04 9ft 11s 18 20 mph 1014.3mb 40f 46f
6:04 7ft 11s 18 20 mph 1014.5mb 40f 46f
5:04 6ft 11s 16 20 mph 1014.6mb 40f 46f
4:04 6ft 11s 18 20 mph 1014.6mb 40f 47f
3:04 6ft 6s 18 20 mph 1014.9mb 40f 46f
2:04 5ft 6s 16 18 mph 1015.3mb 41f 46f
1:04 5ft 6s 16 18 mph 1016.1mb 41f 45f
12:04 5ft 6s 16 18 mph 1016.5mb 40f 45f
11:04 5.5ft 6s 18 20 mph 1016.8mb 40f 45f
10:04 5.5ft 6s 16 18 mph 1017.1mb 40f 44f
9:04 5ft 6s 16 20 mph 1017.5mb 40f 45f
8:04 6ft 6s 20 22 mph 1017.5mb 41f 44f
7:04 5ft 6s 20 25 mph 1017.8mb 41f 44f
6:04 5ft 6s 20 27 mph 1018.1mb 41f 44f
5:04 5ft 5s 18 22 mph 1018.9mb 41f 43f
4:04 4.5ft 5s 18 22 mph 1019.9mb 41f 43f
3:04 5.5ft 6s 18 20 mph 1021mb 41f 43f
2:04 5ft 5s 18 20 mph 1021.7mb 41f 43f
1:04 5.5ft 6s 20 22 mph 1022.2mb 41f 42f
12:04 5ft 6s 18 22 mph 1023.2mb 40f 42f
Di 04/25 11:04 4.5ft 6s 18 20 mph 1024mb 40f 42f
10:04 4.5ft 5s 16 18 mph 1025mb 40f 43f
9:04 4.5ft 6s 11 13 mph 1025.5mb 40f 42f
8:04 3.5ft 5s 11 13 mph 1026mb 40f 42f
7:04 3.5ft 5s 13 16 mph 1026.5mb 40f 42f
6:04 3.5ft 5s 16 18 mph 1026.8mb 40f 42f
5:04 4ft 5s 16 20 mph 1027.6mb 40f 41f
4:04 4ft 5s 18 20 mph 1027.9mb 41f 41f
3:04 4ft 5s 18 20 mph 1028.4mb 41f 41f
2:04 4ft 5s 18 20 mph 1028.8mb 41f 41f
1:04 4ft 5s 16 18 mph 1029.2mb 40f 41f
12:04 4.5ft 5s 20 25 mph 1029.3mb 40f 41f
11:04 4.5ft 5s 20 25 mph 1029.3mb 41f 41f
10:04 3.5ft 5s 18 22 mph 1029.2mb 41f 41f
9:04 2.5ft 4s 20 22 mph 1028.8mb 41f 41f
8:04 2ft 3s 20 25 mph 1028.4mb 41f 41f
7:04 1.6ft 4s 16 20 mph 1028.3mb 41f 40f
6:04 1.3ft 5s 13 16 mph 1027.5mb 41f 39f
5:04 2ft 8s 11
mph
1027mb 42f 39f
4:04 1ft 5s 7 9 mph 1026.7mb 42f 39f
3:04 2ft 11s 4 7 mph 1026mb 42f 41f
2:04 1.6ft 8s 7
mph
1026mb 42f 41f
1:04 2.5ft 11s 4 7 mph 1025.6mb 42f 39f
12:04 2ft 8s 4 7 mph 1025.2mb 42f 38f
Mo 04/24 11:04 1.3ft 5s 2 4 mph 1024.8mb 42f 40f
10:04 2ft 11s 2 4 mph 1024.8mb 42f 40f
9:04 1.3ft 5s 4
mph
1024.2mb 42f 43f
8:04 2.5ft 11s 4
mph
1023.7mb 42f 43f
7:04 2ft 5s 2 4 mph 1023mb 42f 44f
6:04 2ft 5s 4
mph
1022.8mb 43f 45f
5:04 3ft 5s 9
mph
1022.1mb 42f 45f
4:04 2.5ft 5s 4
mph
1021.9mb 43f 46f
3:04 3.5ft 5s 4 7 mph 1022.1mb 43f 46f
2:04 3ft 5s 2 4 mph 1022.2mb 43f 46f
1:04 3.5ft 6s 2 4 mph 1021.8mb 42f 44f
12:04 2.5ft 6s 4
mph
1021.8mb 41f 43f
11:04 3ft 5s 4 7 mph 1021.7mb 41f 42f
10:04 3.5ft 6s 7 9 mph 1021.2mb 40f 43f
9:04 3.5ft 6s 7 9 mph 1020.6mb 40f 42f
8:04 3.5ft 5s 4
mph
1019.9mb 40f 42f
7:04 4ft 5s 7
mph
1019.7mb 40f 42f
6:04 3.5ft 5s 9
mph
1018.9mb 40f 42f
5:04 3ft 4s 7 9 mph 1018.3mb 40f 42f
4:04 3.5ft 5s 13 16 mph 1017.9mb 40f 42f
3:04 3ft 5s 13 16 mph 1017mb 40f 42f
2:04 3.5ft 5s 13 16 mph 1016.9mb 40f 42f
1:04 2ft 4s 16 18 mph 1017.2mb 40f 42f
12:04 1.6ft 4s 13 18 mph 1017.4mb 40f 42f
So 04/23 11:04 3.5ft 11s 13 16 mph 1017.8mb 41f 42f
10:04 3.5ft 11s 9 11 mph 1017.5mb 41f 42f
9:04  -   -  11 16 mph 1017.3mb 41f 42f
8:04  -   -  13 16 mph 1017mb 41f 42f
7:04  -   -  9 11 mph 1016.4mb 41f 42f
6:04 2.5ft 8s 9 11 mph 1016.5mb 41f 42f
5:04 2.5ft 11s 9 11 mph 1016.8mb 41f 42f
4:04 1ft 5s 9 11 mph 1016.7mb 41f 42f
3:04 3ft 16s 7 9 mph 1017mb 41f 42f